ARIANE 2 DEB, 26727

Orbit data source: Space-Track

ARIANE 2 DEB, 26727 is space debris in HEO originally from a launch on Fri, 27 Jan 1989 UTC launched from the French Guiana (FRGUI). Debris objects in space refer to the collection of defunct objects orbiting the Earth. Examples of debris include non-operational satellites, rocket bodies, and fragments generated from explosions, collisions, or faulty payload assembly.

Loading next visibility...
Identifier
26727, 1989-006E
Orbit
HEO
Country
Flag of FRFR
Related business
Manufacturer
EADS/LV
Mission
Spacecraft
Bus & Motor
Unknown
Mass
Unknown
Launch date (UTC)
1989-01-27 (37 years ago)
Launch vehicle
Unknown
Launch site
French Guiana (FRGUI)
Object type
Payload
Rocket body
Debris
Shape & HBR
Unknown shape, 0.3 m
Radar Cross Section
Medium (>0.1 m² and <1 m²)

Expand to show TLE details & history
Last TLE update: 9 hours ago

TLE from 9 hours ago
0 ARIANE 2 DEB
1 26727U 89006E   26095.51498491  .00000334  00000-0  33445-2 0  9991
2 26727   7.9798 122.7414 7152944 340.7941 235.4875  2.28958405210029
Epoch: 2026-04-05T12:21Z
TLE epoch observation values (Epoch: 2026-04-05T12:21:34.696Z)
Latitude
0.75593°
Longitude
-81.77228°
Altitude
32,476.898 km
Speed
2.031 km/s
True Right ascension
19h 49m 45s
True Declination
0° 45' 18"
Sunlit
Object was in daylight at epoch
Visualization orbit readout
Latitude
Unknown
Longitude
Unknown
Altitude
Unknown
Speed
Unknown
Apparent Right ascension
Unknown
Apparent Declination
Unknown
Sunlit
N/A
Visualization observer readout
Local Sidereal Time
02:49:16
Azimuth
Unknown
Elevation
Unknown
Doppler factor
Unknown
Orbital elements
Apogee altitude
35,340.339 km
Perigee altitude
546.321 km
Semi-major axis
24,321.467 km
Eccentricity
0.71529
Inclination
7.9798°
RAAN
122.7414°
Arg. of periapsis
340.7941°
True anomaly
193.80774°
Mean anomaly
235.4875°
Eccentric anomaly
213.10401°
Mean motion
0.57221 °/min
Orbital period
629.14 mins
BSTAR
0.0033445
Loading maneuver chart data...
Computing Atmospheric mass density...
Loading historical data...
Loading historical data...
Loading historical data...
Loading historical data...
Loading historical data...
Loading historical data...
Loading historical data...

Documentation

Showing up to 5 results
|